Wind_Speed
11 11 10 9 8 7 6 5 5 6 5 5 5 5 4 4 3 3 3 3 3 3 3 3 3 4 4 4 5 6 6 6 6 7 7 7 8 8 8 9 10 10 11
12 12 11 10 9 8 8 7 7 7 7 6 5 5 4 4 3 3 4 4 4 4 5 5 5 6 6 6 6 7 7 8 8 8 9 9 9 10 10 10 11 12 12
13 12 12 11 10 10 9 9 9 9 8 7 6 5 5 5 4 4 5 5 5 6 6 7 7 7 8 8 8 9 9 9 9 9 10 10 11 12 13 13 13 13 14
14 13 12 12 11 11 10 10 10 10 10 9 7 7 6 6 6 6 6 6 6 7 7 8 8 9 9 10 10 11 11 11 11 11 12 12 13 14 14 15 15 15 16
14 14 13 12 11 12 11 11 11 11 11 11 9 9 8 8 8 8 8 8 8 8 9 9 10 10 11 12 12 12 13 13 13 14 14 15 15 16 17 17 18 18 18
15 14 13 13 12 12 12 12 12 12 12 12 11 10 10 10 10 10 10 10 10 10 11 11 12 13 13 14 14 14 15 15 16 16 16 17 18 19 19 20 20 20 20
16 15 15 14 14 14 13 14 14 14 14 13 12 12 12 12 11 12 12 12 12 12 12 13 13 14 15 15 16 16 17 17 18 19 19 19 20 21 21 21 22 22 22
17 17 16 16 16 15 15 15 15 15 15 14 14 14 13 13 13 14 14 14 14 14 15 15 16 16 17 18 19 19 20 20 21 21 22 23 23 23 23 24 24 25 25
16 17 17 17 17 17 17 17 17 17 17 16 16 16 15 16 16 16 16 16 16 17 17 18 18 19 20 21 21 22 23 23 24 25 25 26 26 26 26 27 27 27 28
17 18 18 18 18 18 18 17 17 17 17 17 17 17 18 18 18 18 19 19 19 19 20 21 21 22 23 23 24 25 25 26 27 27 28 28 28 28 29 29 30 30 31
18 19 19 19 19 18 18 18 18 18 18 18 19 19 20 20 20 20 21 21 21 22 22 23 24 25 25 26 27 27 28 29 29 30 30 30 30 31 31 32 33 33 33
19 19 19 19 19 19 19 20 20 20 20 20 21 22 22 22 23 23 23 23 24 24 24 25 26 27 28 28 29 30 30 31 32 32 32 32 33 33 34 34 35 36 36
19 19 19 20 20 20 21 21 22 21 21 22 22 23 24 24 24 24 25 25 26 26 27 27 29 29 30 31 32 33 33 34 34 34 35 35 35 36 36 37 38 38 38
19 20 20 21 21 21 21 21 21 22 22 23 24 24 25 26 26 27 27 28 28 28 29 30 31 32 32 33 34 35 36 36 37 37 37 37 38 39 39 40 40 40 40
21 21 21 22 22 22 22 22 23 23 24 25 26 26 27 28 28 29 29 30 30 31 32 32 33 34 35 35 36 37 37 38 38 38 39 39 40 41 42 42 42 42 42
22 22 23 24 24 24 24 25 25 26 27 28 28 29 29 30 30 31 32 32 33 33 34 34 35 36 37 37 38 38 39 39 39 40 41 42 42 43 44 44 44 45 45
23 24 24 25 25 26 26 27 28 28 29 30 30 31 32 32 33 33 34 34 35 35 36 37 37 38 38 39 39 40 41 41 42 42 43 44 44 45 46 46 46 46 47
24 25 25 26 27 28 29 29 30 30 30 31 32 32 33 34 34 35 36 36 37 37 38 38 39 40 40 41 42 43 43 44 44 44 45 46 47 48 48 48 48 48 48
26 27 28 28 29 29 30 31 31 31 32 33 33 34 35 36 36 37 38 38 39 39 40 40 41 42 43 44 45 45 46 46 46 47 47 48 49 50 50 50 50 50 51
28 28 29 29 30 31 32 32 33 33 34 35 36 36 37 38 38 39 40 40 41 41 42 43 44 45 46 46 47 48 48 48 49 49 50 51 51 51 52 52 52 52 52
29 30 30 31 32 33 34 34 35 36 36 37 38 38 39 39 40 40 41 42 43 43 44 44 45 47 48 49 49 49 49 50 51 52 53 53 53 52 52 53 53 53 53
31 32 32 33 34 35 35 36 37 37 38 38 39 40 40 40 41 42 42 43 45 45 46 47 48 49 50 50 51 51 52 52 53 54 54 54 54 53 53 54 54 55 55
34 34 34 35 36 36 37 39 39 39 39 40 41 41 42 42 43 44 45 46 47 47 48 49 50 50 51 52 53 53 53 53 54 54 54 54 54 54 54 54 55 56 56
35 36 36 37 38 38 39 40 40 41 41 42 42 43 43 44 45 46 47 48 48 49 50 51 51 52 52 53 53 54 54 55 55 55 55 55 55 55 55 55 55 55 55
37 38 39 40 40 41 41 42 42 43 43 44 44 44 45 46 47 47 48 49 50 51 51 52 52 53 53 54 54 55 55 55 56 56 56 56 56 55 56 55 54 54 55
40 41 41 42 43 43 43 44 44 45 45 46 46 46 47 48 49 49 50 50 51 52 52 53 54 54 55 55 55 55 55 55 55 56 56 56 55 55 55 54 53 53 53
Wind_Direction
220 219 222 226 231 234 242 249 253 259 264 268 280 294 302 302 311 319 319 314 312 311 314 316 319 319 318 319 322 323 322 320 319 310 306 303 301 298 292 286 279 278 278
223 223 229 232 236 236 243 247 254 261 265 264 273 285 291 291 295 301 303 301 303 305 304 302 303 305 305 308 309 312 312 313 314 310 303 300 300 299 297 293 288 283 280
225 228 232 236 237 239 245 248 254 260 266 264 265 270 275 281 286 289 292 294 297 300 301 300 299 299 302 301 300 302 304 307 309 308 305 299 297 297 297 296 293 288 284
227 232 236 235 237 242 247 248 252 257 260 260 260 266 270 274 278 283 286 290 291 295 296 297 299 298 298 299 299 298 301 303 304 305 304 300 297 295 295 295 293 291 288
229 233 233 234 243 244 247 250 253 256 258 260 257 261 265 269 274 278 282 286 288 292 294 296 299 300 299 298 300 301 301 302 302 302 303 301 299 298 296 294 293 291 290
232 231 234 240 245 248 248 252 256 257 257 257 257 260 264 267 270 273 278 283 287 291 294 296 298 299 299 298 299 299 300 300 300 301 300 301 299 297 295 293 291 289 288
235 234 240 243 246 250 252 254 255 257 257 255 256 260 263 266 270 273 276 280 285 287 290 294 298 300 301 299 299 300 300 300 299 298 296 297 298 296 294 292 291 290 288
239 239 243 245 247 250 255 255 258 258 256 255 256 258 261 266 270 274 276 280 283 286 288 291 295 298 299 299 298 297 297 297 297 297 296 295 295 294 293 292 291 290 289
242 242 246 248 249 253 256 255 257 257 255 254 256 258 262 267 269 274 277 279 281 285 287 289 292 295 297 298 297 296 295 295 296 297 297 296 294 293 292 291 291 290 289
243 246 248 250 251 253 254 254 257 258 255 255 259 261 264 268 271 274 277 280 281 283 285 288 290 293 295 296 296 295 294 294 295 296 296 294 293 292 292 291 290 290 290
243 246 249 252 252 252 253 255 256 258 258 258 261 264 267 269 271 274 277 279 282 284 285 288 291 292 294 295 296 296 295 295 294 295 295 294 293 293 293 292 291 291 290
246 247 249 250 249 251 254 256 258 260 260 261 263 266 268 271 273 275 277 278 280 282 284 287 289 292 294 295 296 296 296 296 295 295 295 294 294 294 294 294 293 292 291
250 249 251 251 251 254 257 260 262 263 263 263 265 267 269 272 274 275 277 279 281 283 284 287 289 291 293 295 296 296 296 296 296 295 294 293 294 294 294 294 293 292 289
252 253 254 254 256 257 258 260 261 263 264 265 266 268 270 274 276 278 279 281 282 284 285 287 289 291 292 293 295 296 296 296 295 294 293 293 293 293 293 294 294 292 290
255 255 255 256 257 259 260 262 265 266 268 269 270 272 274 276 279 280 281 282 283 284 286 287 289 290 292 293 294 295 295 295 295 294 294 293 293 293 293 294 294 293 291
256 257 257 257 258 260 262 264 267 269 271 273 274 275 276 277 279 281 282 283 283 285 286 288 289 290 291 292 294 294 295 295 295 295 295 294 294 294 294 294 293 293 292
259 259 260 260 260 261 263 264 266 269 271 273 274 276 277 278 280 281 282 283 284 286 287 288 289 290 291 292 294 295 295 295 295 295 295 294 294 294 295 294 294 294 294
260 262 263 264 263 263 265 266 268 270 272 273 275 275 277 278 280 281 282 284 285 286 287 288 289 290 292 293 294 294 295 294 294 294 295 294 294 295 295 294 294 294 294
263 264 265 266 266 266 267 269 271 272 273 274 276 277 278 279 280 281 283 284 285 286 287 288 289 291 292 293 294 294 294 294 294 294 295 295 295 295 295 294 294 294 294
263 265 266 267 268 268 269 271 272 273 275 276 277 279 280 280 281 282 283 284 284 286 287 288 290 291 292 293 294 294 294 294 294 295 295 295 295 295 295 294 294 294 294
264 266 268 269 270 271 272 273 274 275 276 278 279 279 280 281 281 282 282 283 284 285 287 289 290 291 292 293 293 293 293 293 294 295 295 295 295 295 295 295 295 295 294
267 268 270 271 272 273 273 275 276 277 278 279 280 280 281 281 282 283 283 284 285 286 287 288 290 291 292 293 294 293 293 293 294 295 295 295 294 294 295 295 295 294 294
269 270 272 273 274 275 277 278 278 278 278 279 280 281 282 282 283 284 284 285 286 287 288 290 291 292 292 293 294 293 293 294 294 294 294 294 294 295 295 295 294 294 294
270 271 273 274 275 276 278 278 278 279 279 279 280 281 282 283 284 285 285 286 287 288 289 290 291 292 293 293 293 293 293 294 294 294 294 294 294 295 295 294 294 294 294
271 272 273 275 276 277 277 278 278 279 279 279 280 281 282 284 284 285 286 287 287 288 289 291 292 293 293 293 293 292 292 292 293 293 293 294 295 295 295 295 294 293 294
273 274 275 276 277 277 278 278 279 279 280 280 281 282 283 284 285 286 286 287 288 289 290 290 292 293 293 293 293 292 292 292 293 293 294 294 295 294 295 295 294 294 294
Height
5863 5864 5865 5866 5867 5867 5867 5867 5867 5867 5867 5866 5866 5865 5864 5864 5863 5863 5862 5862 5862 5861 5861 5861 5860 5860 5859 5859 5858 5857 5856 5855 5855 5854 5852 5852 5851 5850 5850 5849 5848 5847 5847
5860 5861 5863 5863 5864 5865 5865 5865 5865 5865 5865 5864 5864 5863 5863 5862 5862 5862 5861 5861 5861 5860 5860 5859 5859 5858 5858 5857 5856 5855 5855 5854 5853 5852 5850 5849 5849 5848 5847 5846 5845 5844 5843
5857 5859 5860 5861 5862 5862 5863 5863 5863 5863 5862 5862 5862 5862 5861 5861 5861 5860 5860 5860 5859 5858 5858 5857 5857 5856 5855 5855 5854 5853 5852 5851 5850 5849 5848 5847 5846 5845 5843 5842 5841 5840 5840
5854 5856 5857 5858 5859 5859 5860 5860 5860 5860 5860 5860 5860 5860 5860 5859 5859 5859 5858 5858 5857 5856 5856 5855 5854 5854 5853 5852 5851 5850 5849 5848 5847 5846 5845 5844 5843 5841 5840 5839 5838 5836 5835
5851 5852 5854 5855 5855 5856 5856 5857 5857 5857 5857 5857 5857 5857 5857 5857 5857 5857 5856 5856 5855 5854 5853 5853 5852 5851 5850 5849 5848 5847 5846 5845 5844 5843 5841 5840 5839 5837 5836 5834 5833 5832 5830
5848 5849 5850 5851 5852 5853 5853 5853 5854 5854 5854 5854 5854 5854 5855 5855 5854 5854 5853 5853 5852 5852 5851 5850 5849 5848 5846 5845 5844 5843 5842 5841 5840 5839 5837 5836 5834 5833 5831 5829 5828 5826 5825
5844 5846 5847 5848 5848 5849 5849 5849 5850 5850 5850 5851 5851 5851 5851 5851 5851 5851 5850 5850 5849 5848 5848 5847 5846 5844 5843 5842 5840 5839 5838 5837 5835 5834 5832 5831 5829 5828 5826 5824 5822 5820 5818
5840 5841 5842 5843 5844 5845 5845 5846 5846 5846 5846 5847 5847 5847 5848 5848 5848 5847 5847 5846 5845 5845 5844 5843 5842 5840 5839 5837 5836 5835 5833 5831 5830 5828 5827 5825 5823 5821 5819 5817 5815 5814 5812
5836 5837 5838 5839 5840 5840 5841 5841 5841 5842 5842 5842 5843 5843 5844 5844 5843 5843 5842 5842 5841 5840 5839 5838 5837 5835 5834 5832 5831 5829 5827 5825 5823 5821 5819 5817 5815 5813 5811 5810 5808 5806 5804
5831 5833 5834 5834 5835 5835 5836 5836 5837 5837 5837 5838 5838 5839 5839 5839 5839 5838 5837 5837 5836 5835 5834 5833 5831 5830 5828 5826 5824 5822 5821 5819 5817 5814 5812 5809 5807 5805 5803 5801 5799 5797 5795
5827 5828 5829 5829 5830 5830 5831 5831 5832 5832 5833 5833 5833 5833 5834 5833 5833 5832 5832 5831 5830 5829 5828 5826 5825 5823 5821 5819 5817 5815 5813 5810 5808 5806 5803 5801 5798 5796 5793 5791 5789 5786 5784
5822 5823 5823 5824 5824 5825 5826 5826 5827 5827 5827 5828 5828 5828 5828 5827 5826 5826 5825 5824 5823 5822 5821 5819 5818 5816 5814 5811 5809 5807 5804 5802 5799 5797 5794 5792 5789 5787 5784 5781 5778 5775 5772
5817 5817 5818 5818 5819 5819 5820 5820 5821 5821 5822 5822 5822 5822 5821 5820 5820 5819 5818 5817 5816 5815 5813 5812 5810 5808 5805 5803 5800 5798 5795 5792 5789 5786 5784 5781 5779 5776 5773 5770 5767 5763 5760
5811 5812 5812 5813 5813 5814 5814 5814 5815 5815 5815 5815 5815 5815 5814 5813 5813 5812 5810 5809 5808 5806 5805 5803 5801 5799 5796 5794 5791 5788 5785 5781 5778 5776 5773 5770 5767 5764 5761 5757 5754 5750 5747
5805 5806 5806 5807 5807 5808 5808 5808 5808 5808 5808 5808 5808 5807 5807 5806 5805 5803 5802 5801 5799 5797 5795 5794 5792 5789 5787 5784 5781 5778 5774 5771 5767 5764 5761 5758 5755 5752 5748 5744 5741 5737 5734
5798 5799 5800 5800 5801 5801 5801 5801 5801 5801 5800 5800 5799 5799 5798 5797 5796 5794 5793 5791 5789 5787 5786 5784 5781 5779 5776 5773 5770 5767 5763 5760 5756 5753 5750 5746 5743 5739 5735 5732 5728 5724 5720
5792 5792 5792 5793 5793 5793 5794 5794 5793 5793 5792 5791 5791 5790 5789 5788 5786 5785 5783 5781 5779 5777 5775 5773 5771 5768 5765 5762 5759 5755 5752 5748 5745 5741 5738 5734 5730 5726 5722 5718 5714 5710 5706
5784 5785 5785 5785 5785 5785 5785 5785 5785 5784 5784 5783 5782 5780 5779 5778 5776 5775 5773 5771 5769 5767 5764 5762 5759 5757 5754 5750 5747 5744 5740 5736 5732 5729 5725 5721 5717 5713 5709 5705 5700 5696 5692
5777 5777 5777 5777 5776 5776 5776 5776 5775 5775 5774 5773 5772 5770 5769 5767 5765 5764 5762 5760 5758 5755 5753 5750 5748 5745 5742 5738 5735 5731 5727 5723 5720 5716 5711 5707 5703 5699 5694 5690 5686 5681 5677
5768 5768 5768 5768 5767 5767 5767 5766 5766 5765 5764 5763 5761 5760 5758 5756 5754 5752 5750 5748 5746 5743 5741 5738 5735 5732 5729 5725 5721 5717 5713 5710 5706 5702 5697 5693 5689 5684 5679 5675 5670 5666 5661
5759 5759 5759 5758 5758 5758 5757 5756 5755 5754 5753 5752 5750 5748 5746 5744 5742 5740 5738 5736 5733 5731 5728 5725 5722 5718 5715 5711 5707 5703 5699 5695 5691 5687 5683 5678 5673 5669 5664 5660 5655 5651 5646
5750 5750 5749 5749 5748 5747 5746 5745 5744 5743 5741 5740 5738 5736 5734 5732 5730 5728 5726 5723 5720 5717 5715 5711 5708 5704 5700 5696 5692 5688 5684 5680 5676 5671 5667 5662 5658 5653 5649 5644 5639 5635 5630
5740 5739 5739 5738 5737 5736 5735 5734 5732 5731 5729 5727 5725 5723 5721 5719 5717 5715 5712 5710 5707 5704 5701 5697 5694 5690 5686 5681 5677 5673 5669 5665 5660 5655 5651 5647 5642 5637 5633 5628 5623 5618 5614
5729 5729 5728 5727 5726 5725 5723 5722 5720 5718 5716 5714 5712 5710 5708 5706 5704 5701 5698 5696 5693 5690 5686 5683 5679 5675 5671 5666 5662 5657 5653 5648 5644 5639 5635 5630 5626 5621 5616 5611 5606 5601 5597
5717 5717 5716 5715 5713 5712 5710 5709 5707 5705 5703 5701 5699 5697 5695 5692 5689 5687 5684 5681 5678 5675 5671 5667 5664 5659 5655 5651 5646 5642 5637 5632 5628 5623 5618 5613 5609 5604 5599 5594 5589 5585 5580
5704 5704 5703 5701 5700 5698 5696 5695 5693 5691 5689 5687 5685 5683 5680 5678 5675 5672 5669 5666 5663 5660 5656 5652 5648 5643 5639 5634 5630 5625 5621 5616 5611 5606 5601 5596 5592 5587 5582 5577 5573 5568 5564